Regional Weather Roundup
Issued by NWS Portland, ME

Current Version | Previous Version | Text Only | Print | Product List | Glossary Off
Versions: 1 2 3 4 5 6 7 8 9 10 11 12 13 14 15 16 17 18 19 20 21 22 23 24 25 26 27 28 29 30 31 32 33 34 35 36 37 38 39 40 41 42 43 44 45 46 47 48 49 50
000 ASUS41 KGYX 190305 RWRGYX WEATHER ROUNDUP FOR MAINE AND NEW HAMPSHIRE NATIONAL WEATHER SERVICE GRAY ME 1000 PM EST SAT NOV 18 2017 MEZ002-005-006-010-012-015-018-020-021-024-026-027-029-190400- MAINE CITY SKY/WX TMP DP RH WIND PRES REMARKS PORTLAND RAIN 42 40 92 VRB6 29.57F FOG SANFORD LGT RAIN 36 35 96 CALM 29.56F FOG WISCASSET LGT RAIN 46 44 93 VRB5 29.60F ROCKLAND LGT RAIN 48 45 89 SE12G24 29.61F FRYEBURG LGT RAIN 33 33 100 CALM 29.57F LEWISTONAUBURN LGT RAIN 34 34 100 CALM 29.58F FOG AUGUSTA LGT RAIN 35 32 88 NW3 29.59F FOG BANGOR CLOUDY 37 31 78 CALM 29.63F GREENVILLE NOT AVBL MILLINOCKET CLOUDY 32 24 72 E3 29.65F HOULTON CLOUDY 32 23 69 SE5 29.66F PRESQUE ISLE CLOUDY 28 23 81 E5 29.67F FRENCHVILLE CLOUDY 23 19 85 E8 29.63F CARIBOU CLOUDY 28 22 78 E8 29.65F $$ NHZ002-005-008-009-011-012-014-190400- NEW HAMPSHIRE CITY SKY/WX TMP DP RH WIND PRES REMARKS PORTSMOUTH LGT RAIN 47 46 95 S6 29.54F FOG ROCHESTER LGT RAIN 36 36 100 NW5 29.55F FOG NASHUA MIX PCPN 37 36 96 W5 29.55F MANCHESTER CLOUDY 37 36 96 CALM 29.53F CONCORD LGT RAIN 36 33 89 NW5 29.54F FOG LACONIA LGT RAIN 36 35 96 NE7 29.54F PLYMOUTH MIX PCPN 32 32 99 CALM 29.55F BERLIN LGT RAIN 34 32 92 CALM 29.50F WHITEFIELD FRZ RAIN 33 32 96 NW3 29.47F FOG JAFFREY CLOUDY 38 38 100 CALM 29.51F FOG KEENE LGT RAIN 35 33 92 CALM 29.50F FOG LEBANON LGT RAIN 35 34 96 CALM 29.48F MT WASHINGTON FRZ RAIN 25 25 100 S39G45 N/A VSB 0 WCI 6 $$ VTZ005-007-008-190400- VERMONT CITY SKY/WX TMP DP RH WIND PRES REMARKS MONTPELIER LGT RAIN 35 35 100 S7 29.47F BURLINGTON LGT RAIN 36 33 89 E6 29.39F $$ MAZ007-012-024-CTZ003-RIZ002-NYZ038-NYZ072-190400- SOUTHERN NEW ENGLAND AND NY CITY SKY/WX TMP DP RH WIND PRES REMARKS BOSTON CLOUDY 48 46 93 SE9 29.54F WORCESTER LGT RAIN 41 39 93 SW6 29.51F FOG NANTUCKET LGT RAIN 55 54 96 S15 29.62F PROVIDENCE LGT RAIN 54 52 93 SW21G28 29.56F HARTFORD CLOUDY 36 35 96 CALM 29.51F ALBANY LGT RAIN 43 39 86 S17G28 29.41F NEW YORK CITY LGT RAIN 52 46 80 S6 29.50F $$ ANZ081-ANZ082-ANZ150-NHZ014-MEZ023>029-190400- COASTAL MARINE OBSERVATIONS STATION/POSITION TIME TEMP WIND PRES WAVE AIR SEA DIR/SP/G HT/PER (UTC) (F) (DEG/KT/KT) (MB) (FT/S) MOUNT DESERT ROC 0200 48 150/ 19/ 20 1006.1F MATINICUS ROCK 0200 48 160/ 22/ 24 1004.1F ISLE OF SHOALS 0200 50 150/ 24/ 27 1001.6F JEFFREYS LEDGE 0236 52 N/A 3/ 4 CASHES LEDGE BUO 0150 49 51 1004.4 3/ 4 GEORGES BANK BUO 0150 57 54 1009.4 4/ 7 $$ .............KEY.............. WCI - WIND CHILL TC - TEMPERATURE IN CELSIUS VSB - VISIBILITY IN MILES HX - HEAT INDEX FAIR- INDICATES FEW OR NO CLOUDS BELOW 12,000 FT, WITH NO SIGNIFICANT WEATHER AND/OR OBSTRUCTIONS TO VISIBILITY.

USA.gov is the U.S. government's official web portal to all federal, state and local government web resources and services.